Weather History for North Platte, NE

Change the Weather History Date:

Friday, February 7, 2014

  Actual Average Record
Temperature  
Mean Temperature 8 °F 27 °F  
Max Temperature 13 °F 41 °F 73 °F (1987)
Min Temperature 2 °F 13 °F -23 °F (1895)
Degree Days  
Heating Degree Days 57 38  
Month to date heating degree days 420 269  
Since 1 July heating degree days 4368 4289  
Cooling Degree Days 0 0  
Month to date cooling degree days 0 0  
Year to date cooling degree days 0 0  
Moisture  
Dew Point 2 °F    
Average Humidity 77    
Maximum Humidity 88    
Minimum Humidity 66    
Precipitation  
Precipitation T in 0.02 in 0.55 in (1980)
Month to date precipitation 0.15 0.09  
Year to date precipitation 0.47 0.43  
Snow  
Snow T in 0.10 in 6.90 in (1980)
Month to date snowfall 2.9 1.2  
Since 1 July snowfall 13.7 16.8  
Snow Depth 3.00 in    
Sea Level Pressure  
Sea Level Pressure 30.13 in    
Wind  
Wind Speed 9 mph (South)    
Max Wind Speed 15 mph    
Max Gust Speed 18 mph    
Visibility 10 miles    
Events      
T = Trace of Precipitation, MM = Missing Value Source: NWS Daily Summary

Daily Weather History Graph

Daily Weather History Graph

Search for Another Location

Airport:

Trip Planner

Search our weather history database for the weather conditions in past years. The results will help you decide how hot, cold, wet, or windy it might be!

Date:

Astronomy

Feb. 07, 2014 Rise Set
Actual Time 7:47 AM CST 6:07 PM CST
Civil Twilight 7:18 AM CST 6:35 PM CST
Nautical Twilight 6:45 AM CST 7:08 PM CST
Astronomical Twilight 6:13 AM CST 7:40 PM CST
Moon 12:19 PM CST (2/7) 2:05 AM CST (2/7)
Length of Visible Light 11h 17m
Length of Day
10h 20m
First Quarter, 59% of the Moon is Illuminated
Feb 7
First Quarter
Feb 14
Full
Feb 22
Last Quarter
Mar 1
New
Mar 8
First Quarter

Hourly Weather History & Observations

Time (CST) Temp. Windchill Dew Point Humidity Pressure Visibility Wind Dir Wind Speed Gust Speed Precip Events Conditions
12:53 AM 3.0 °F -11.5 °F -2.9 °F 76% 30.33 in 10.0 mi South 9.2 mph - N/A   Overcast
1:53 AM 3.0 °F -11.5 °F -2.0 °F 80% 30.30 in 10.0 mi South 9.2 mph - N/A   Overcast
2:53 AM 3.9 °F -6.9 °F -0.9 °F 80% 30.28 in 10.0 mi South 5.8 mph - N/A   Overcast
3:53 AM 5.0 °F -9.1 °F -0.9 °F 76% 30.26 in 10.0 mi South 9.2 mph - N/A   Overcast
4:53 AM 5.0 °F -10.0 °F -0.9 °F 76% 30.26 in 10.0 mi South 10.4 mph - N/A   Overcast
5:53 AM 6.1 °F -10.2 °F -0.0 °F 76% 30.25 in 10.0 mi SSW 12.7 mph - N/A   Overcast
6:53 AM 3.9 °F -8.2 °F -0.9 °F 80% 30.23 in 10.0 mi South 6.9 mph - N/A   Mostly Cloudy
7:53 AM 5.0 °F -9.1 °F -0.9 °F 76% 30.23 in 10.0 mi South 9.2 mph - N/A   Overcast
8:21 AM 5.0 °F -10.0 °F -0.4 °F 78% 30.04 in 10.0 mi South 10.4 mph - N/A   Overcast
8:53 AM 5.0 °F -9.1 °F -0.0 °F 80% 30.24 in 10.0 mi South 9.2 mph - N/A   Overcast
9:26 AM 6.8 °F -6.9 °F -0.4 °F 72% 30.05 in 10.0 mi South 9.2 mph - N/A   Scattered Clouds
9:53 AM 6.1 °F -9.5 °F -0.9 °F 73% 30.23 in 10.0 mi South 11.5 mph - N/A   Clear
10:53 AM 8.1 °F -6.2 °F -0.0 °F 70% 30.23 in 10.0 mi SSW 10.4 mph - N/A   Clear
11:53 AM 10.0 °F -4.5 °F 1.9 °F 70% 30.22 in 10.0 mi SSW 11.5 mph - N/A   Clear
12:53 PM 10.9 °F -2.6 °F 1.9 °F 67% 30.18 in 10.0 mi SW 10.4 mph - N/A   Clear
1:26 PM 10.4 °F -4.8 °F 3.2 °F 73% 29.98 in 10.0 mi SSW 12.7 mph - N/A   Mostly Cloudy
1:53 PM 12.0 °F -1.3 °F 3.0 °F 67% 30.13 in 10.0 mi South 10.4 mph - N/A   Overcast
2:53 PM 12.0 °F -2.7 °F 3.9 °F 70% 30.11 in 10.0 mi South 12.7 mph - N/A   Scattered Clouds
3:14 PM 12.2 °F -1.8 °F 3.2 °F 67% 29.93 in 8.0 mi SSW 11.5 mph - N/A   Mostly Cloudy
3:53 PM 12.0 °F -0.4 °F 3.0 °F 67% 30.09 in 10.0 mi South 9.2 mph - N/A   Overcast
4:53 PM 12.9 °F -0.2 °F 5.0 °F 71% 30.09 in 9.0 mi South 10.4 mph - N/A   Overcast
5:28 PM 12.2 °F 1.7 °F 3.2 °F 67% 29.93 in 10.0 mi SSW 6.9 mph - N/A   Scattered Clouds
5:53 PM 10.9 °F 2.9 °F 3.0 °F 70% 30.10 in 10.0 mi SSW 4.6 mph - N/A   Scattered Clouds
6:53 PM 9.0 °F -5.1 °F 1.9 °F 73% 30.08 in 10.0 mi SE 10.4 mph - N/A   Partly Cloudy
7:53 PM 8.1 °F -3.2 °F 3.0 °F 80% 30.11 in 10.0 mi SSW 6.9 mph - N/A   Clear
8:53 PM 7.0 °F -3.3 °F 3.0 °F 84% 30.10 in 10.0 mi South 5.8 mph - N/A   Clear
9:53 PM 8.1 °F -3.2 °F 3.0 °F 80% 30.07 in 10.0 mi SSE 6.9 mph - N/A   Clear
10:18 PM 8.6 °F -3.7 °F 3.2 °F 79% 29.89 in 7.0 mi South 8.1 mph - N/A   Mostly Cloudy
10:53 PM 8.1 °F -3.2 °F 3.9 °F 83% 30.04 in 7.0 mi South 6.9 mph - N/A   Scattered Clouds
11:00 PM 8.6 °F -4.7 °F 3.2 °F 79% 29.88 in 6.0 mi South 9.2 mph - N/A   Mostly Cloudy
11:51 PM 8.6 °F 0.1 °F 5.0 °F 85% 29.89 in 9.0 mi South 4.6 mph - N/A   Overcast
11:53 PM 9.0 °F 0.6 °F 5.0 °F 84% 30.04 in 9.0 mi South 4.6 mph - N/A   Overcast